Wind_Speed
11 11 9 8 7 6 6 4 4 5 4 4 4 5 4 4 3 3 3 2 1 2 2 2 2 1 1 2 2 3 4 5 5 6 7 8 8 8 8 8 8 8 8 8 9 9 9 9 9
12 12 11 10 8 7 6 5 3 3 5 4 4 4 4 4 4 4 4 3 2 2 3 3 2 1 0 2 2 3 4 5 6 7 7 8 8 8 8 9 9 8 8 8 9 9 9 9 9
13 12 12 11 10 8 7 4 4 4 4 4 4 4 4 4 5 5 5 4 4 4 3 3 2 1 1 2 3 4 5 6 6 7 8 8 8 8 9 9 9 8 8 8 9 9 9 9 9
14 13 13 12 10 9 7 6 5 5 4 4 4 4 4 4 4 5 5 5 5 4 4 3 2 1 1 2 3 4 5 6 6 7 8 8 8 8 9 9 9 8 8 9 9 9 9 9 9
14 13 13 12 10 9 8 7 6 5 4 4 4 4 4 3 5 5 5 6 5 5 4 3 3 2 1 2 3 4 5 6 6 7 8 8 8 8 9 9 10 9 9 9 9 10 10 10 10
14 14 14 13 11 9 8 8 7 6 5 5 5 4 4 4 4 4 4 5 5 5 5 4 3 2 1 2 3 4 5 5 6 7 7 8 9 9 9 10 10 10 10 10 9 10 9 10 11
15 15 14 13 12 10 9 9 8 7 5 5 5 5 5 5 4 5 5 5 5 5 5 5 4 2 1 2 3 3 4 5 6 7 8 8 9 10 10 10 10 10 10 10 9 9 9 10 10
16 15 14 14 12 11 10 10 9 8 6 5 6 6 6 5 6 6 6 6 5 5 5 5 3 2 2 2 3 3 4 5 6 7 8 8 9 10 10 10 10 10 10 10 10 9 9 10 10
16 15 15 14 13 12 11 10 10 9 8 6 6 6 7 7 7 7 7 6 6 6 5 5 3 3 2 3 3 3 4 5 6 7 8 9 10 10 10 10 10 10 11 10 10 9 9 10 10
16 15 15 14 13 12 11 10 10 9 8 7 7 6 7 8 8 7 7 7 6 6 5 4 4 3 3 3 3 4 4 6 7 8 9 9 10 10 10 11 11 11 11 11 10 10 10 10 10
14 15 15 15 14 12 11 10 10 10 9 8 8 8 8 8 7 7 7 7 7 6 5 4 4 4 3 3 4 4 5 6 7 8 9 9 9 10 11 11 11 11 11 11 11 10 10 10 10
14 14 14 14 13 12 11 11 10 10 9 7 8 9 8 7 7 7 7 8 7 6 5 4 4 3 3 3 4 5 6 7 7 8 9 9 9 10 11 11 12 12 12 11 11 11 10 10 10
14 13 13 13 13 12 12 11 10 10 9 9 9 9 8 8 7 7 7 7 7 6 5 5 4 3 3 3 4 5 6 7 7 8 8 9 9 10 11 12 12 12 12 12 12 11 11 10 10
13 13 13 12 13 12 12 11 11 10 10 9 9 8 8 8 8 8 7 7 7 6 5 4 4 3 3 3 4 5 6 6 7 7 8 9 10 11 11 12 13 13 13 12 12 11 11 10 10
13 13 13 13 13 12 12 12 11 10 11 10 10 9 8 8 9 9 8 7 7 6 5 4 3 3 2 3 3 4 5 6 6 7 8 9 10 11 12 12 13 13 13 13 11 10 10 10 9
12 13 13 14 13 12 12 11 11 11 11 11 11 10 9 8 8 10 10 8 7 6 6 4 3 2 1 2 3 4 5 6 7 8 8 9 10 11 12 13 13 13 13 12 11 10 10 9 8
12 12 13 13 13 12 12 11 12 11 11 12 11 11 10 9 9 9 10 9 7 6 5 4 3 2 1 2 3 4 5 6 8 8 9 10 10 11 12 13 13 13 13 13 12 11 10 9 8
12 12 12 13 13 12 12 11 12 12 12 12 12 12 11 10 9 10 10 8 7 6 5 4 3 2 2 3 4 4 5 7 8 9 9 10 11 12 13 13 14 14 13 13 12 11 10 9 8
11 11 13 12 12 12 12 12 13 13 13 12 12 12 11 11 10 11 10 8 7 6 4 4 4 3 2 3 4 5 6 7 8 9 10 11 11 12 13 14 14 14 13 13 12 11 11 9 8
10 11 12 12 12 12 12 12 13 13 13 13 12 12 12 11 11 11 10 8 7 6 5 4 3 3 3 3 4 5 6 7 8 9 10 11 11 12 13 14 14 14 13 13 12 11 11 10 8
10 11 11 11 11 12 12 12 13 13 12 12 12 12 12 12 11 11 10 9 7 6 5 4 4 4 4 4 4 5 6 7 8 9 10 11 11 12 13 14 14 14 13 13 13 12 11 10 8
10 10 11 11 12 12 12 11 13 13 13 12 12 13 12 12 12 11 11 9 8 6 5 4 4 3 3 4 4 5 6 8 9 9 10 11 12 12 13 14 14 14 13 13 13 12 11 10 9
10 10 11 11 11 11 11 12 12 12 12 12 12 13 12 12 12 11 10 9 7 6 5 5 4 4 4 4 5 6 7 8 9 10 10 11 12 12 13 14 14 13 13 13 12 12 12 11 9
10 11 11 11 11 10 10 11 12 11 11 11 11 12 12 12 11 10 9 8 7 6 6 5 4 4 5 5 5 6 7 8 9 10 10 11 12 12 13 13 13 13 13 12 12 12 12 11 10
11 11 11 10 10 9 9 10 11 11 10 11 11 11 11 11 11 9 8 7 6 6 6 5 4 4 5 5 6 6 7 8 9 9 10 10 11 12 12 12 13 13 13 12 12 12 12 11 10
11 11 10 8 8 9 9 10 10 11 11 10 10 11 11 11 10 9 8 7 6 6 6 5 5 4 5 5 6 6 7 8 9 9 10 10 10 11 12 12 12 13 13 13 12 12 12 12 11
11 12 11 9 10 10 10 10 10 10 10 10 10 11 11 11 10 9 8 7 7 6 6 5 5 5 5 6 6 7 8 8 9 10 10 10 10 11 12 12 12 12 13 13 13 13 13 12 11
11 11 12 10 9 9 9 9 9 9 9 9 10 10 10 10 10 9 8 7 7 6 6 5 5 6 6 6 6 7 8 9 9 10 10 10 11 11 12 12 12 12 13 13 13 13 13 12 11
11 11 10 9 8 7 7 8 9 9 9 9 9 9 9 10 9 8 8 7 6 6 6 6 6 6 6 7 7 8 8 9 10 10 10 10 11 11 12 12 12 13 13 13 13 13 14 13 12
10 10 9 9 8 7 7 8 9 9 9 9 9 9 9 8 8 8 8 7 7 7 7 7 7 7 7 7 8 9 9 10 10 11 11 11 11 12 13 13 13 13 14 14 14 14 14 13 13
Wind_Direction
246 246 251 258 261 267 281 280 268 237 231 227 223 222 208 209 209 213 210 204 197 200 191 197 193 219 288 326 333 350 356 351 343 340 337 333 326 322 319 316 313 310 304 299 297 291 290 286 281
242 242 246 251 255 266 274 272 261 241 233 230 225 216 212 208 219 214 209 207 211 202 192 191 201 225 285 339 342 352 354 351 344 341 338 334 329 327 323 321 317 312 306 301 297 294 292 287 281
239 240 241 243 250 259 263 263 247 249 237 234 230 231 228 222 220 210 210 214 213 204 199 195 210 209 293 333 333 341 345 348 344 342 339 336 332 330 326 322 318 314 310 305 299 293 290 286 282
238 237 237 240 245 253 258 253 246 254 240 228 231 233 226 227 216 208 216 221 216 207 204 214 209 201 278 324 330 334 340 344 341 339 337 336 334 330 327 326 321 314 310 307 300 292 288 287 284
235 236 238 238 243 249 254 251 255 249 237 223 228 228 217 214 209 216 228 220 213 216 213 214 208 213 275 319 327 331 335 337 337 338 339 338 335 334 332 328 326 320 312 307 301 295 289 288 286
236 235 237 239 241 245 245 245 247 243 240 232 229 230 219 214 212 219 216 209 212 205 199 197 201 213 248 311 322 332 336 338 338 341 341 339 334 331 328 326 326 321 317 313 305 298 294 288 284
234 232 234 237 238 240 241 244 247 247 237 234 226 226 217 212 213 218 213 204 198 197 193 189 193 206 258 307 315 334 334 335 339 340 337 334 330 327 325 323 322 318 317 315 309 301 296 291 284
231 230 233 233 234 237 241 241 243 248 238 226 221 217 209 206 207 209 214 205 199 199 196 193 201 219 268 299 309 323 328 333 339 339 336 332 329 327 326 324 321 318 316 315 311 305 300 292 284
228 228 231 229 231 235 241 241 239 240 227 222 219 214 210 212 209 210 208 201 202 206 204 212 215 235 269 284 293 312 328 337 341 339 335 331 329 329 328 324 322 319 316 313 310 305 300 294 287
224 227 231 231 232 234 239 237 231 232 221 221 221 212 206 208 207 209 204 204 211 211 214 218 217 234 261 285 300 314 325 333 334 333 331 329 330 330 329 323 321 320 317 312 307 303 299 294 287
223 225 228 231 231 231 233 230 227 228 224 218 212 204 202 205 203 205 202 202 204 206 211 216 219 233 264 288 297 313 321 326 327 327 328 329 330 330 330 327 325 323 319 314 308 302 297 292 286
220 222 225 227 227 225 223 224 223 218 214 203 200 200 206 207 207 208 208 206 207 210 210 209 219 240 268 286 295 307 317 323 326 331 332 332 333 332 332 332 331 328 324 318 310 304 299 291 283
219 222 223 223 220 216 215 218 217 210 206 200 195 195 201 200 198 198 202 205 208 207 208 208 220 236 265 292 300 311 323 326 329 333 333 334 335 334 333 333 332 330 326 321 312 305 300 292 282
220 219 216 215 212 210 212 217 214 205 204 201 195 191 199 202 200 197 200 205 203 201 200 208 221 237 263 293 310 323 327 328 329 333 335 335 334 333 334 334 333 332 330 325 318 310 303 293 281
217 218 211 205 209 207 209 212 210 207 204 201 195 193 196 201 202 200 196 197 198 198 199 200 211 228 252 291 316 325 330 329 332 334 334 333 333 335 337 337 336 335 333 330 325 317 309 299 286
211 213 207 201 204 206 210 213 204 198 198 196 195 195 197 198 195 195 197 199 201 203 204 203 211 217 251 300 319 328 336 337 334 333 334 335 336 339 339 339 339 338 336 335 330 323 316 307 294
209 210 208 204 204 204 207 206 200 196 196 195 195 197 198 197 194 193 195 195 199 200 203 208 211 221 271 313 327 329 334 339 339 336 337 339 340 340 340 342 343 342 341 339 336 330 325 315 303
209 208 204 202 200 202 202 203 200 198 195 194 196 198 199 198 196 197 197 200 204 205 206 208 218 236 286 314 328 330 333 337 339 340 342 343 344 343 344 345 346 346 345 343 341 337 330 321 310
204 204 200 201 199 202 202 200 198 199 199 197 195 196 197 197 197 199 204 205 205 204 213 224 229 248 284 308 323 329 333 336 338 341 344 346 348 348 349 348 348 348 348 347 346 343 339 332 322
196 195 197 202 202 200 200 201 202 203 204 202 195 194 193 192 195 199 200 199 203 211 219 230 236 250 279 301 313 325 331 335 340 343 346 348 349 350 351 352 351 351 350 350 349 347 345 341 334
192 192 195 201 198 196 196 198 198 201 201 202 201 198 196 197 195 194 199 203 208 214 224 233 245 256 273 294 313 324 331 338 343 345 345 347 348 350 352 353 354 354 354 353 353 351 349 347 344
189 190 192 194 193 193 194 195 195 199 200 204 203 200 199 197 194 194 200 204 208 216 227 236 247 257 278 297 316 326 330 338 342 342 344 346 348 349 351 353 355 355 356 356 355 355 353 353 353
187 187 185 183 187 189 191 191 192 193 197 201 202 201 200 198 195 196 201 205 212 223 230 238 254 270 285 298 310 319 327 333 337 339 342 346 348 349 350 353 354 355 356 357 357 357 358 357 357
187 187 185 186 188 188 184 186 188 193 196 198 199 198 198 199 199 198 202 208 219 228 231 239 253 268 286 298 307 316 324 329 333 337 340 343 345 346 349 351 353 355 355 355 357 357 357 358 358
186 186 186 186 190 188 185 189 191 194 195 193 194 195 196 199 200 203 209 217 227 230 232 238 257 273 285 294 304 315 322 328 332 336 338 341 343 346 350 352 353 355 355 355 355 356 356 356 356
184 188 187 190 190 186 185 187 188 189 187 187 191 193 195 198 203 205 209 217 227 228 231 243 259 280 295 302 310 317 321 325 330 334 336 338 341 345 348 350 352 353 354 353 353 354 354 354 355
186 189 190 192 190 187 186 184 182 184 183 184 190 194 199 200 202 204 207 217 229 230 236 248 260 282 298 303 308 313 317 321 326 330 332 334 336 340 342 344 347 348 349 350 351 351 350 349 349
189 192 193 192 189 191 188 188 186 189 191 192 195 197 200 202 201 207 215 223 224 229 242 253 268 280 290 298 303 310 314 319 325 328 329 329 331 333 336 338 340 342 345 346 348 348 348 347 344
192 194 193 197 197 198 196 190 190 195 197 199 200 202 205 206 211 218 223 231 231 241 251 264 275 279 285 295 302 307 312 316 320 325 326 325 326 327 329 331 333 335 337 338 340 341 342 341 339
200 200 200 200 199 203 207 198 196 199 201 202 203 204 202 207 215 220 228 230 238 250 259 268 276 284 289 294 300 307 310 312 314 317 317 318 321 323 323 323 325 326 329 331 332 332 333 334 331
Height
5860 5861 5862 5864 5865 5865 5864 5865 5864 5864 5866 5866 5867 5868 5869 5870 5872 5875 5874 5873 5874 5874 5874 5875 5876 5876 5876 5876 5876 5876 5876 5875 5875 5874 5873 5873 5872 5871 5871 5870 5870 5869 5869 5869 5869 5869 5869 5870 5870
5858 5860 5862 5863 5863 5863 5864 5864 5864 5864 5865 5866 5867 5867 5868 5869 5871 5872 5872 5873 5874 5874 5875 5875 5876 5876 5876 5876 5876 5875 5875 5875 5874 5873 5873 5872 5871 5871 5870 5869 5869 5868 5868 5868 5868 5868 5868 5868 5868
5856 5858 5860 5861 5862 5863 5863 5863 5864 5864 5864 5866 5867 5867 5868 5869 5870 5871 5872 5873 5873 5874 5875 5875 5875 5876 5876 5876 5875 5875 5875 5874 5874 5873 5872 5871 5871 5870 5869 5868 5868 5867 5867 5866 5866 5866 5866 5866 5867
5854 5857 5859 5860 5860 5861 5862 5863 5863 5863 5864 5865 5866 5867 5868 5868 5869 5870 5871 5872 5873 5874 5874 5875 5875 5875 5875 5875 5875 5875 5875 5874 5873 5872 5872 5871 5870 5869 5868 5867 5866 5866 5865 5865 5865 5865 5865 5865 5865
5852 5854 5856 5857 5859 5860 5861 5862 5862 5863 5864 5865 5865 5866 5867 5868 5868 5869 5870 5872 5872 5873 5874 5874 5875 5875 5875 5875 5875 5875 5874 5873 5873 5872 5871 5870 5869 5868 5867 5866 5865 5865 5864 5864 5863 5863 5863 5863 5863
5850 5852 5854 5856 5857 5859 5860 5861 5861 5862 5863 5864 5864 5865 5866 5867 5867 5869 5870 5871 5872 5872 5873 5874 5874 5875 5875 5875 5875 5874 5874 5873 5872 5872 5871 5870 5869 5868 5867 5865 5864 5864 5863 5862 5862 5861 5861 5861 5861
5848 5850 5852 5854 5856 5858 5859 5860 5860 5861 5862 5863 5864 5864 5865 5866 5867 5868 5870 5870 5871 5872 5873 5874 5874 5875 5875 5874 5874 5874 5873 5873 5872 5871 5870 5869 5868 5867 5866 5864 5863 5863 5862 5861 5860 5859 5859 5859 5858
5845 5848 5850 5852 5854 5856 5857 5858 5859 5860 5861 5862 5863 5864 5864 5866 5867 5868 5869 5870 5871 5872 5873 5873 5874 5874 5874 5874 5874 5873 5873 5872 5871 5870 5869 5868 5867 5866 5864 5863 5862 5861 5860 5859 5858 5857 5857 5856 5856
5843 5847 5848 5850 5852 5854 5855 5857 5858 5859 5860 5861 5862 5863 5864 5865 5866 5867 5868 5870 5870 5871 5872 5873 5873 5873 5873 5873 5873 5873 5872 5871 5871 5870 5868 5867 5866 5865 5863 5862 5861 5860 5858 5857 5856 5855 5855 5854 5854
5841 5843 5846 5848 5850 5852 5853 5855 5856 5857 5859 5859 5860 5861 5862 5863 5865 5866 5867 5869 5870 5871 5872 5872 5872 5873 5873 5873 5873 5872 5872 5871 5870 5869 5868 5866 5865 5864 5862 5861 5859 5858 5857 5855 5854 5853 5852 5852 5851
5838 5841 5843 5845 5847 5850 5851 5853 5854 5856 5857 5858 5859 5860 5861 5862 5864 5866 5867 5868 5869 5870 5871 5871 5872 5872 5872 5872 5872 5872 5871 5870 5869 5868 5867 5865 5864 5863 5861 5859 5858 5856 5854 5853 5852 5851 5850 5849 5849
5836 5838 5841 5843 5846 5848 5850 5851 5853 5854 5856 5857 5858 5859 5861 5862 5863 5864 5866 5867 5869 5869 5870 5871 5871 5872 5872 5872 5872 5871 5870 5870 5868 5867 5866 5864 5863 5861 5860 5858 5856 5854 5852 5851 5849 5848 5847 5847 5846
5834 5836 5839 5841 5844 5846 5848 5850 5851 5853 5855 5856 5857 5859 5860 5862 5863 5864 5865 5867 5868 5869 5869 5870 5870 5871 5871 5871 5871 5870 5870 5869 5867 5866 5865 5863 5862 5860 5859 5857 5854 5852 5850 5848 5847 5846 5844 5844 5843
5832 5834 5837 5839 5842 5844 5846 5848 5850 5851 5853 5855 5856 5858 5859 5861 5862 5863 5865 5866 5867 5868 5869 5869 5870 5870 5871 5871 5870 5870 5869 5868 5867 5865 5864 5863 5861 5859 5857 5855 5853 5851 5848 5846 5844 5843 5842 5841 5840
5830 5833 5835 5838 5840 5842 5845 5847 5849 5850 5852 5854 5856 5857 5859 5860 5861 5862 5864 5865 5866 5867 5868 5869 5869 5870 5870 5870 5870 5869 5868 5867 5866 5865 5863 5862 5860 5858 5856 5854 5851 5849 5846 5844 5842 5840 5839 5838 5838
5829 5832 5834 5836 5838 5841 5845 5846 5848 5849 5851 5853 5855 5857 5858 5859 5860 5861 5863 5865 5866 5867 5868 5868 5869 5869 5869 5869 5869 5868 5867 5867 5865 5864 5863 5861 5859 5857 5855 5852 5850 5847 5845 5842 5840 5838 5837 5836 5835
5828 5830 5833 5836 5837 5840 5842 5845 5847 5848 5850 5852 5854 5856 5857 5859 5860 5861 5863 5864 5865 5866 5867 5868 5868 5869 5869 5869 5868 5868 5867 5866 5865 5863 5862 5860 5858 5856 5854 5851 5849 5846 5843 5841 5839 5837 5835 5834 5833
5826 5829 5831 5834 5836 5838 5841 5843 5845 5847 5849 5851 5853 5855 5856 5858 5860 5861 5862 5864 5865 5866 5867 5867 5868 5868 5868 5868 5868 5867 5866 5865 5864 5863 5861 5859 5857 5855 5853 5850 5847 5845 5842 5839 5837 5835 5833 5832 5831
5825 5828 5830 5833 5835 5838 5840 5842 5844 5846 5848 5850 5852 5854 5855 5857 5859 5860 5862 5863 5864 5865 5866 5867 5867 5867 5868 5868 5867 5867 5866 5865 5864 5862 5860 5858 5856 5854 5852 5849 5846 5844 5841 5838 5836 5834 5832 5830 5829
5825 5827 5830 5832 5834 5837 5839 5841 5843 5845 5847 5849 5851 5853 5854 5856 5858 5860 5861 5863 5864 5865 5866 5866 5866 5867 5867 5867 5867 5866 5865 5864 5863 5861 5859 5858 5855 5853 5851 5848 5846 5843 5840 5838 5835 5833 5831 5829 5827
5825 5828 5830 5832 5834 5836 5839 5841 5843 5844 5846 5848 5850 5852 5854 5855 5857 5859 5860 5862 5863 5864 5865 5865 5866 5866 5866 5866 5866 5865 5864 5863 5862 5860 5859 5857 5855 5853 5850 5848 5845 5842 5840 5837 5834 5832 5830 5828 5827
5825 5828 5830 5832 5834 5835 5838 5840 5842 5843 5845 5847 5849 5851 5853 5855 5857 5858 5860 5861 5863 5863 5864 5864 5865 5865 5865 5865 5865 5864 5863 5862 5861 5859 5858 5856 5854 5852 5850 5847 5844 5842 5839 5837 5834 5832 5830 5828 5826
5826 5828 5830 5832 5833 5836 5837 5840 5842 5843 5845 5847 5849 5851 5853 5855 5856 5858 5859 5860 5862 5862 5863 5863 5864 5864 5864 5864 5864 5863 5862 5861 5860 5859 5857 5855 5853 5851 5849 5847 5844 5842 5839 5837 5834 5832 5830 5828 5826
5826 5829 5830 5832 5834 5836 5837 5839 5842 5842 5844 5846 5848 5850 5852 5854 5856 5857 5858 5860 5861 5861 5862 5863 5863 5863 5863 5863 5863 5862 5861 5860 5859 5858 5856 5854 5853 5851 5849 5846 5844 5841 5839 5837 5835 5832 5830 5828 5827
5827 5830 5831 5832 5834 5836 5837 5839 5842 5842 5844 5845 5847 5849 5851 5853 5855 5856 5858 5859 5859 5860 5861 5862 5862 5862 5862 5862 5861 5861 5860 5859 5858 5857 5855 5854 5852 5850 5848 5846 5844 5841 5839 5837 5835 5832 5830 5828 5827
5827 5830 5833 5834 5835 5836 5837 5839 5841 5842 5844 5845 5847 5849 5850 5852 5854 5855 5857 5858 5859 5859 5860 5860 5861 5861 5861 5861 5860 5860 5859 5858 5857 5856 5854 5853 5851 5849 5847 5845 5843 5841 5839 5837 5835 5832 5830 5828 5827
5827 5829 5832 5834 5835 5837 5838 5840 5841 5842 5844 5845 5847 5848 5850 5852 5853 5855 5856 5857 5858 5858 5859 5859 5859 5860 5860 5859 5859 5858 5858 5857 5855 5854 5853 5851 5850 5848 5846 5845 5843 5841 5838 5836 5834 5832 5830 5828 5826
5828 5830 5832 5834 5835 5836 5838 5840 5842 5842 5844 5845 5846 5848 5850 5851 5853 5854 5855 5856 5857 5857 5858 5858 5858 5858 5858 5858 5857 5857 5856 5855 5854 5853 5851 5850 5849 5847 5845 5844 5842 5840 5838 5836 5834 5832 5830 5828 5826
5829 5830 5832 5834 5836 5837 5838 5842 5841 5842 5843 5844 5846 5847 5849 5850 5852 5853 5854 5855 5855 5856 5856 5857 5857 5857 5857 5856 5856 5855 5854 5853 5852 5851 5850 5848 5847 5845 5844 5842 5841 5839 5837 5835 5833 5831 5828 5826 5825
5828 5830 5832 5834 5836 5837 5838 5843 5840 5842 5843 5844 5845 5846 5848 5849 5851 5852 5852 5853 5854 5854 5855 5855 5855 5855 5855 5854 5854 5853 5852 5851 5850 5849 5848 5846 5845 5843 5842 5840 5839 5837 5835 5833 5831 5829 5827 5825 5823